Time,TemperatureF,DewpointF,PressureIn,WindDirection,WindDirectionDegrees,WindSpeedMPH,WindSpeedGustMPH,Humidity,HourlyPrecipIn,Conditions,Clouds,dailyrainin,SoftwareType,DateUTC
2013-03-14 00:00:00,49.1,-99.9,30.06,NE,45,2.0,-999.0,0,0.00,,,0.16,Wunderground v.1.15,2013-03-14 07:00:00,
2013-03-14 00:05:00,49.1,-99.9,30.06,NE,45,2.0,-999.0,0,0.00,,,0.16,Wunderground v.1.15,2013-03-14 07:05:00,
2013-03-14 00:10:00,49.1,-99.9,30.06,NE,45,2.0,-999.0,0,0.00,,,0.16,Wunderground v.1.15,2013-03-14 07:10:00,
2013-03-14 00:15:00,49.1,-99.9,30.06,NE,45,2.0,-999.0,0,0.00,,,0.16,Wunderground v.1.15,2013-03-14 07:15:00,
2013-03-14 00:20:00,49.1,-99.9,30.06,NE,45,2.0,-999.0,0,0.00,,,0.16,Wunderground v.1.15,2013-03-14 07:20:00,
2013-03-14 00:25:00,49.1,-99.9,30.06,NE,45,2.0,-999.0,0,0.00,,,0.16,Wunderground v.1.15,2013-03-14 07:25:00,
2013-03-14 00:30:00,49.1,-99.9,30.06,NE,45,2.0,-999.0,0,0.00,,,0.16,Wunderground v.1.15,2013-03-14 07:30:00,
2013-03-14 00:35:00,49.1,-99.9,30.06,NE,45,2.0,-999.0,0,0.00,,,0.16,Wunderground v.1.15,2013-03-14 07:35:00,
2013-03-14 00:40:00,49.1,-99.9,30.06,NE,45,2.0,-999.0,0,0.00,,,0.16,Wunderground v.1.15,2013-03-14 07:40:00,
2013-03-14 00:45:00,48.8,-99.9,30.05,WNW,293,2.0,-999.0,0,0.00,,,0.16,Wunderground v.1.15,2013-03-14 07:45:00,
2013-03-14 00:50:00,48.8,-99.9,30.05,WNW,293,2.0,-999.0,0,0.00,,,0.16,Wunderground v.1.15,2013-03-14 07:50:00,
2013-03-14 00:55:00,48.8,-99.9,30.05,WNW,293,2.0,-999.0,0,0.00,,,0.16,Wunderground v.1.15,2013-03-14 07:55:00,
2013-03-14 01:00:00,48.8,-99.9,30.05,WNW,293,2.0,-999.0,0,0.00,,,0.16,Wunderground v.1.15,2013-03-14 08:00:00,
2013-03-14 01:05:00,48.8,-99.9,30.05,WNW,293,2.0,-999.0,0,0.00,,,0.16,Wunderground v.1.15,2013-03-14 08:05:00,
2013-03-14 01:10:00,48.8,-99.9,30.05,WNW,293,2.0,-999.0,0,0.00,,,0.16,Wunderground v.1.15,2013-03-14 08:10:00,
2013-03-14 01:15:00,49.0,-99.9,30.04,WNW,293,2.0,-999.0,0,0.00,,,0.16,Wunderground v.1.15,2013-03-14 08:15:00,
2013-03-14 01:20:00,49.0,-99.9,30.04,WNW,293,2.0,-999.0,0,0.00,,,0.16,Wunderground v.1.15,2013-03-14 08:20:00,
2013-03-14 01:25:00,49.0,-99.9,30.04,WNW,293,2.0,-999.0,0,0.00,,,0.16,Wunderground v.1.15,2013-03-14 08:25:00,
2013-03-14 01:30:00,49.0,-99.9,30.04,WNW,293,2.0,-999.0,0,0.00,,,0.16,Wunderground v.1.15,2013-03-14 08:30:00,
2013-03-14 01:35:00,49.0,-99.9,30.04,WNW,293,2.0,-999.0,0,0.00,,,0.16,Wunderground v.1.15,2013-03-14 08:35:00,
2013-03-14 01:40:00,49.0,-99.9,30.04,WNW,293,2.0,-999.0,0,0.00,,,0.16,Wunderground v.1.15,2013-03-14 08:40:00,
2013-03-14 01:45:00,48.7,-48.3,30.04,NW,315,2.0,-999.0,1,0.00,,,0.16,Wunderground v.1.15,2013-03-14 08:45:00,
2013-03-14 01:50:00,48.7,-48.3,30.04,NW,315,2.0,-999.0,1,0.00,,,0.16,Wunderground v.1.15,2013-03-14 08:50:00,
2013-03-14 01:55:00,48.7,-48.3,30.04,NW,315,2.0,-999.0,1,0.00,,,0.16,Wunderground v.1.15,2013-03-14 08:55:00,
2013-03-14 02:00:00,48.7,-48.3,30.04,NW,315,2.0,-999.0,1,0.00,,,0.16,Wunderground v.1.15,2013-03-14 09:00:00,
2013-03-14 02:05:00,48.7,-48.3,30.04,NW,315,2.0,-999.0,1,0.00,,,0.16,Wunderground v.1.15,2013-03-14 09:05:00,
2013-03-14 02:10:00,48.7,-48.3,30.04,NW,315,2.0,-999.0,1,0.00,,,0.16,Wunderground v.1.15,2013-03-14 09:10:00,
2013-03-14 02:15:00,48.6,-5.6,30.04,West,270,1.0,-999.0,10,0.00,,,0.16,Wunderground v.1.15,2013-03-14 09:15:00,
2013-03-14 02:20:00,48.6,-5.6,30.04,West,270,1.0,-999.0,10,0.00,,,0.16,Wunderground v.1.15,2013-03-14 09:20:00,
2013-03-14 02:25:00,48.6,-5.6,30.04,West,270,1.0,-999.0,10,0.00,,,0.16,Wunderground v.1.15,2013-03-14 09:25:00,
2013-03-14 02:30:00,48.6,-5.6,30.04,West,270,1.0,-999.0,10,0.00,,,0.16,Wunderground v.1.15,2013-03-14 09:30:00,
2013-03-14 02:35:00,48.6,-5.6,30.04,West,270,1.0,-999.0,10,0.00,,,0.16,Wunderground v.1.15,2013-03-14 09:35:00,
2013-03-14 02:40:00,48.6,-5.6,30.04,West,270,1.0,-999.0,10,0.00,,,0.16,Wunderground v.1.15,2013-03-14 09:40:00,
2013-03-14 02:45:00,48.6,-3.7,30.04,NW,315,1.0,-999.0,11,0.00,,,0.16,Wunderground v.1.15,2013-03-14 09:45:00,
2013-03-14 02:50:00,48.6,-3.7,30.04,NW,315,1.0,-999.0,11,0.00,,,0.16,Wunderground v.1.15,2013-03-14 09:50:00,
2013-03-14 02:55:00,48.6,-3.7,30.04,NW,315,1.0,-999.0,11,0.00,,,0.16,Wunderground v.1.15,2013-03-14 09:55:00,
2013-03-14 03:00:00,48.6,-3.7,30.04,NW,315,1.0,-999.0,11,0.00,,,0.16,Wunderground v.1.15,2013-03-14 10:00:00,
2013-03-14 03:05:00,48.6,-3.7,30.04,NW,315,1.0,-999.0,11,0.00,,,0.16,Wunderground v.1.15,2013-03-14 10:05:00,
2013-03-14 03:10:00,48.6,-3.7,30.04,NW,315,1.0,-999.0,11,0.00,,,0.16,Wunderground v.1.15,2013-03-14 10:10:00,
2013-03-14 03:15:00,47.7,-99.9,30.05,North,0,0.0,-999.0,0,0.00,,,0.16,Wunderground v.1.15,2013-03-14 10:15:00,
2013-03-14 03:20:00,47.7,-99.9,30.05,North,0,0.0,-999.0,0,0.00,,,0.16,Wunderground v.1.15,2013-03-14 10:20:00,
2013-03-14 03:25:00,47.7,-99.9,30.05,North,0,0.0,-999.0,0,0.00,,,0.16,Wunderground v.1.15,2013-03-14 10:25:00,
2013-03-14 03:30:00,47.7,-99.9,30.05,North,0,0.0,-999.0,0,0.00,,,0.16,Wunderground v.1.15,2013-03-14 10:30:00,
2013-03-14 03:35:00,47.7,-99.9,30.05,North,0,0.0,-999.0,0,0.00,,,0.16,Wunderground v.1.15,2013-03-14 10:35:00,
2013-03-14 03:40:00,47.7,-99.9,30.05,North,0,0.0,-999.0,0,0.00,,,0.16,Wunderground v.1.15,2013-03-14 10:40:00,
2013-03-14 03:45:00,47.7,-99.9,30.04,NNE,23,0.0,-999.0,0,0.00,,,0.16,Wunderground v.1.15,2013-03-14 10:45:00,
2013-03-14 03:50:00,47.7,-99.9,30.04,NNE,23,0.0,-999.0,0,0.00,,,0.16,Wunderground v.1.15,2013-03-14 10:50:00,
2013-03-14 03:55:00,47.7,-99.9,30.04,NNE,23,0.0,-999.0,0,0.00,,,0.16,Wunderground v.1.15,2013-03-14 10:55:00,
2013-03-14 04:00:00,47.7,-99.9,30.04,NNE,23,0.0,-999.0,0,0.00,,,0.16,Wunderground v.1.15,2013-03-14 11:00:00,
2013-03-14 04:05:00,47.7,-99.9,30.04,NNE,23,0.0,-999.0,0,0.00,,,0.16,Wunderground v.1.15,2013-03-14 11:05:00,
2013-03-14 04:10:00,47.7,-99.9,30.04,NNE,23,0.0,-999.0,0,0.00,,,0.16,Wunderground v.1.15,2013-03-14 11:10:00,
2013-03-14 04:15:00,48.0,-99.9,30.03,North,0,1.0,-999.0,0,0.01,,,0.16,Wunderground v.1.15,2013-03-14 11:15:00,
2013-03-14 04:20:00,48.0,-99.9,30.03,North,0,1.0,-999.0,0,0.01,,,0.16,Wunderground v.1.15,2013-03-14 11:20:00,
2013-03-14 04:25:00,48.0,-99.9,30.03,North,0,1.0,-999.0,0,0.01,,,0.16,Wunderground v.1.15,2013-03-14 11:25:00,
2013-03-14 04:30:00,48.0,-99.9,30.03,North,0,1.0,-999.0,0,0.01,,,0.16,Wunderground v.1.15,2013-03-14 11:30:00,
2013-03-14 04:35:00,48.0,-99.9,30.03,North,0,1.0,-999.0,0,0.01,,,0.16,Wunderground v.1.15,2013-03-14 11:35:00,
2013-03-14 04:40:00,48.0,-99.9,30.03,North,0,1.0,-999.0,0,0.01,,,0.16,Wunderground v.1.15,2013-03-14 11:40:00,
2013-03-14 04:45:00,48.1,-99.9,30.02,NNE,23,0.0,-999.0,0,0.02,,,0.16,Wunderground v.1.15,2013-03-14 11:45:00,
2013-03-14 04:50:00,48.1,-99.9,30.02,NNE,23,0.0,-999.0,0,0.02,,,0.16,Wunderground v.1.15,2013-03-14 11:50:00,
2013-03-14 04:55:00,48.1,-99.9,30.02,NNE,23,0.0,-999.0,0,0.02,,,0.16,Wunderground v.1.15,2013-03-14 11:55:00,
2013-03-14 05:00:00,48.1,-99.9,30.02,NNE,23,0.0,-999.0,0,0.02,,,0.16,Wunderground v.1.15,2013-03-14 12:00:00,
2013-03-14 05:05:00,48.1,-99.9,30.02,NNE,23,0.0,-999.0,0,0.02,,,0.16,Wunderground v.1.15,2013-03-14 12:05:00,
2013-03-14 05:10:00,48.1,-99.9,30.02,NNE,23,0.0,-999.0,0,0.02,,,0.16,Wunderground v.1.15,2013-03-14 12:10:00,
2013-03-14 05:15:00,48.4,-99.9,30.02,North,0,1.0,-999.0,0,0.01,,,0.16,Wunderground v.1.15,2013-03-14 12:15:00,
2013-03-14 05:20:00,48.4,-99.9,30.02,North,0,1.0,-999.0,0,0.01,,,0.16,Wunderground v.1.15,2013-03-14 12:20:00,
2013-03-14 05:25:00,48.4,-99.9,30.02,North,0,1.0,-999.0,0,0.01,,,0.16,Wunderground v.1.15,2013-03-14 12:25:00,
2013-03-14 05:30:00,48.4,-99.9,30.02,North,0,1.0,-999.0,0,0.01,,,0.16,Wunderground v.1.15,2013-03-14 12:30:00,
2013-03-14 05:35:00,48.4,-99.9,30.02,North,0,1.0,-999.0,0,0.01,,,0.16,Wunderground v.1.15,2013-03-14 12:35:00,
2013-03-14 05:40:00,48.4,-99.9,30.02,North,0,1.0,-999.0,0,0.01,,,0.16,Wunderground v.1.15,2013-03-14 12:40:00,
2013-03-14 05:45:00,48.2,-99.9,30.02,NNW,338,1.0,-999.0,0,0.01,,,0.16,Wunderground v.1.15,2013-03-14 12:45:00,
2013-03-14 05:50:00,48.2,-99.9,30.02,NNW,338,1.0,-999.0,0,0.01,,,0.16,Wunderground v.1.15,2013-03-14 12:50:00,
2013-03-14 05:55:00,48.2,-99.9,30.02,NNW,338,1.0,-999.0,0,0.01,,,0.16,Wunderground v.1.15,2013-03-14 12:55:00,
2013-03-14 06:00:00,48.2,-99.9,30.02,NNW,338,1.0,-999.0,0,0.01,,,0.16,Wunderground v.1.15,2013-03-14 13:00:00,
2013-03-14 06:05:00,48.2,-99.9,30.02,NNW,338,1.0,-999.0,0,0.01,,,0.16,Wunderground v.1.15,2013-03-14 13:05:00,
2013-03-14 06:10:00,48.2,-99.9,30.02,NNW,338,1.0,-999.0,0,0.01,,,0.16,Wunderground v.1.15,2013-03-14 13:10:00,
2013-03-14 06:15:00,48.3,-99.9,30.02,North,0,1.0,-999.0,0,0.01,,,0.16,Wunderground v.1.15,2013-03-14 13:15:00,
2013-03-14 06:20:00,48.3,-99.9,30.02,North,0,1.0,-999.0,0,0.01,,,0.16,Wunderground v.1.15,2013-03-14 13:20:00,
2013-03-14 06:25:00,48.3,-99.9,30.02,North,0,1.0,-999.0,0,0.01,,,0.16,Wunderground v.1.15,2013-03-14 13:25:00,
2013-03-14 06:30:00,48.3,-99.9,30.02,North,0,1.0,-999.0,0,0.01,,,0.16,Wunderground v.1.15,2013-03-14 13:30:00,
2013-03-14 06:35:00,48.3,-99.9,30.02,North,0,1.0,-999.0,0,0.01,,,0.16,Wunderground v.1.15,2013-03-14 13:35:00,
2013-03-14 06:40:00,48.3,-99.9,30.02,North,0,1.0,-999.0,0,0.01,,,0.16,Wunderground v.1.15,2013-03-14 13:40:00,
2013-03-14 06:45:00,48.4,-99.9,30.02,WSW,248,1.0,-999.0,0,0.00,,,0.16,Wunderground v.1.15,2013-03-14 13:45:00,
2013-03-14 06:50:00,48.4,-99.9,30.02,WSW,248,1.0,-999.0,0,0.00,,,0.16,Wunderground v.1.15,2013-03-14 13:50:00,
2013-03-14 06:55:00,48.4,-99.9,30.02,WSW,248,1.0,-999.0,0,0.00,,,0.16,Wunderground v.1.15,2013-03-14 13:55:00,
2013-03-14 07:00:00,48.4,-99.9,30.02,WSW,248,1.0,-999.0,0,0.00,,,0.16,Wunderground v.1.15,2013-03-14 14:00:00,
2013-03-14 07:05:00,48.4,-99.9,30.02,WSW,248,1.0,-999.0,0,0.00,,,0.16,Wunderground v.1.15,2013-03-14 14:05:00,
2013-03-14 07:10:00,48.4,-99.9,30.02,WSW,248,1.0,-999.0,0,0.00,,,0.16,Wunderground v.1.15,2013-03-14 14:10:00,
2013-03-14 07:15:00,48.5,-99.9,30.04,NNW,338,1.0,-999.0,0,0.00,,,0.16,Wunderground v.1.15,2013-03-14 14:15:00,
2013-03-14 07:20:00,48.5,-99.9,30.04,NNW,338,1.0,-999.0,0,0.00,,,0.16,Wunderground v.1.15,2013-03-14 14:20:00,
2013-03-14 07:25:00,48.5,-99.9,30.04,NNW,338,1.0,-999.0,0,0.00,,,0.16,Wunderground v.1.15,2013-03-14 14:25:00,
2013-03-14 07:30:00,48.5,-99.9,30.04,NNW,338,1.0,-999.0,0,0.00,,,0.16,Wunderground v.1.15,2013-03-14 14:30:00,
2013-03-14 07:35:00,48.5,-99.9,30.04,NNW,338,1.0,-999.0,0,0.00,,,0.16,Wunderground v.1.15,2013-03-14 14:35:00,
2013-03-14 07:40:00,48.5,-99.9,30.04,NNW,338,1.0,-999.0,0,0.00,,,0.16,Wunderground v.1.15,2013-03-14 14:40:00,
2013-03-14 07:45:00,48.3,-99.9,30.03,NNE,23,1.0,-999.0,0,0.00,,,0.16,Wunderground v.1.15,2013-03-14 14:45:00,
2013-03-14 07:50:00,48.3,-99.9,30.03,NNE,23,1.0,-999.0,0,0.00,,,0.16,Wunderground v.1.15,2013-03-14 14:50:00,
2013-03-14 07:55:00,48.3,-99.9,30.03,NNE,23,1.0,-999.0,0,0.00,,,0.16,Wunderground v.1.15,2013-03-14 14:55:00,
2013-03-14 08:00:00,48.3,-99.9,30.03,NNE,23,1.0,-999.0,0,0.00,,,0.16,Wunderground v.1.15,2013-03-14 15:00:00,
2013-03-14 08:05:00,48.3,-99.9,30.03,NNE,23,1.0,-999.0,0,0.00,,,0.16,Wunderground v.1.15,2013-03-14 15:05:00,
2013-03-14 08:10:00,48.3,-99.9,30.03,NNE,23,1.0,-999.0,0,0.00,,,0.16,Wunderground v.1.15,2013-03-14 15:10:00,
2013-03-14 08:15:00,48.7,-99.9,30.04,NNE,23,1.0,-999.0,0,0.00,,,0.16,Wunderground v.1.15,2013-03-14 15:15:00,
2013-03-14 08:20:00,48.7,-99.9,30.04,NNE,23,1.0,-999.0,0,0.00,,,0.16,Wunderground v.1.15,2013-03-14 15:20:00,
2013-03-14 08:25:00,48.7,-99.9,30.04,NNE,23,1.0,-999.0,0,0.00,,,0.16,Wunderground v.1.15,2013-03-14 15:25:00,
2013-03-14 08:30:00,48.7,-99.9,30.04,NNE,23,1.0,-999.0,0,0.00,,,0.16,Wunderground v.1.15,2013-03-14 15:30:00,
2013-03-14 08:35:00,48.7,-99.9,30.04,NNE,23,1.0,-999.0,0,0.00,,,0.16,Wunderground v.1.15,2013-03-14 15:35:00,
2013-03-14 08:40:00,48.7,-99.9,30.04,NNE,23,1.0,-999.0,0,0.00,,,0.16,Wunderground v.1.15,2013-03-14 15:40:00,
2013-03-14 08:45:00,49.1,-99.9,30.05,North,0,1.0,-999.0,0,0.00,,,0.16,Wunderground v.1.15,2013-03-14 15:45:00,
2013-03-14 08:50:00,49.1,-99.9,30.05,North,0,1.0,-999.0,0,0.00,,,0.16,Wunderground v.1.15,2013-03-14 15:50:00,
2013-03-14 08:55:00,49.1,-99.9,30.05,North,0,1.0,-999.0,0,0.00,,,0.16,Wunderground v.1.15,2013-03-14 15:55:00,
2013-03-14 09:00:00,49.1,-99.9,30.05,North,0,1.0,-999.0,0,0.00,,,0.16,Wunderground v.1.15,2013-03-14 16:00:00,
2013-03-14 09:05:00,49.1,-99.9,30.05,North,0,1.0,-999.0,0,0.00,,,0.16,Wunderground v.1.15,2013-03-14 16:05:00,
2013-03-14 09:10:00,49.1,-99.9,30.05,North,0,1.0,-999.0,0,0.00,,,0.16,Wunderground v.1.15,2013-03-14 16:10:00,
2013-03-14 09:15:00,49.5,-99.9,30.06,North,0,1.0,-999.0,0,0.00,,,0.16,Wunderground v.1.15,2013-03-14 16:15:00,
2013-03-14 09:20:00,49.5,-99.9,30.06,North,0,1.0,-999.0,0,0.00,,,0.16,Wunderground v.1.15,2013-03-14 16:20:00,
2013-03-14 09:25:00,49.5,-99.9,30.06,North,0,1.0,-999.0,0,0.00,,,0.16,Wunderground v.1.15,2013-03-14 16:25:00,
2013-03-14 09:30:00,49.5,-99.9,30.06,North,0,1.0,-999.0,0,0.00,,,0.16,Wunderground v.1.15,2013-03-14 16:30:00,
2013-03-14 09:35:00,49.5,-99.9,30.06,North,0,1.0,-999.0,0,0.00,,,0.16,Wunderground v.1.15,2013-03-14 16:35:00,
2013-03-14 09:40:00,49.5,-99.9,30.06,North,0,1.0,-999.0,0,0.00,,,0.16,Wunderground v.1.15,2013-03-14 16:40:00,
2013-03-14 09:45:00,50.1,-99.9,30.06,SSE,158,0.0,-999.0,0,0.00,,,0.16,Wunderground v.1.15,2013-03-14 16:45:00,
2013-03-14 09:50:00,50.1,-99.9,30.06,SSE,158,0.0,-999.0,0,0.00,,,0.16,Wunderground v.1.15,2013-03-14 16:50:00,
2013-03-14 09:55:00,50.1,-99.9,30.06,SSE,158,0.0,-999.0,0,0.00,,,0.16,Wunderground v.1.15,2013-03-14 16:55:00,
2013-03-14 10:00:00,50.1,-99.9,30.06,SSE,158,0.0,-999.0,0,0.00,,,0.16,Wunderground v.1.15,2013-03-14 17:00:00,
2013-03-14 10:05:00,50.1,-99.9,30.06,SSE,158,0.0,-999.0,0,0.00,,,0.16,Wunderground v.1.15,2013-03-14 17:05:00,
2013-03-14 10:10:00,50.1,-99.9,30.06,SSE,158,0.0,-999.0,0,0.00,,,0.16,Wunderground v.1.15,2013-03-14 17:10:00,
2013-03-14 10:15:00,50.8,-99.9,30.05,SSE,158,0.0,-999.0,0,0.00,,,0.16,Wunderground v.1.15,2013-03-14 17:15:00,
2013-03-14 10:20:00,50.8,-99.9,30.05,SSE,158,0.0,-999.0,0,0.00,,,0.16,Wunderground v.1.15,2013-03-14 17:20:00,
2013-03-14 10:25:00,50.8,-99.9,30.05,SSE,158,0.0,-999.0,0,0.00,,,0.16,Wunderground v.1.15,2013-03-14 17:25:00,
2013-03-14 10:30:00,50.8,-99.9,30.05,SSE,158,0.0,-999.0,0,0.00,,,0.16,Wunderground v.1.15,2013-03-14 17:30:00,
2013-03-14 10:35:00,50.8,-99.9,30.05,SSE,158,0.0,-999.0,0,0.00,,,0.16,Wunderground v.1.15,2013-03-14 17:35:00,
2013-03-14 10:40:00,50.8,-99.9,30.05,SSE,158,0.0,-999.0,0,0.00,,,0.16,Wunderground v.1.15,2013-03-14 17:40:00,
2013-03-14 10:45:00,51.7,-99.9,30.05,NW,315,0.0,-999.0,0,0.00,,,0.16,Wunderground v.1.15,2013-03-14 17:45:00,
2013-03-14 10:50:00,51.7,-99.9,30.05,NW,315,0.0,-999.0,0,0.00,,,0.16,Wunderground v.1.15,2013-03-14 17:50:00,
2013-03-14 10:55:00,51.7,-99.9,30.05,NW,315,0.0,-999.0,0,0.00,,,0.16,Wunderground v.1.15,2013-03-14 17:55:00,
2013-03-14 11:00:00,51.7,-99.9,30.05,NW,315,0.0,-999.0,0,0.00,,,0.16,Wunderground v.1.15,2013-03-14 18:00:00,
2013-03-14 11:05:00,51.7,-99.9,30.05,NW,315,0.0,-999.0,0,0.00,,,0.16,Wunderground v.1.15,2013-03-14 18:05:00,
2013-03-14 11:10:00,51.7,-99.9,30.05,NW,315,0.0,-999.0,0,0.00,,,0.16,Wunderground v.1.15,2013-03-14 18:10:00,
2013-03-14 11:15:00,51.9,-7.7,30.05,SW,225,1.0,-999.0,8,0.00,,,0.16,Wunderground v.1.15,2013-03-14 18:15:00,
2013-03-14 11:20:00,51.9,-7.7,30.05,SW,225,1.0,-999.0,8,0.00,,,0.16,Wunderground v.1.15,2013-03-14 18:20:00,
2013-03-14 11:25:00,51.9,-7.7,30.05,SW,225,1.0,-999.0,8,0.00,,,0.16,Wunderground v.1.15,2013-03-14 18:25:00,
2013-03-14 11:30:00,51.9,-7.7,30.05,SW,225,1.0,-999.0,8,0.00,,,0.16,Wunderground v.1.15,2013-03-14 18:30:00,
2013-03-14 11:35:00,51.9,-7.7,30.05,SW,225,1.0,-999.0,8,0.00,,,0.16,Wunderground v.1.15,2013-03-14 18:35:00,
2013-03-14 11:40:00,51.9,-7.7,30.05,SW,225,1.0,-999.0,8,0.00,,,0.16,Wunderground v.1.15,2013-03-14 18:40:00,
2013-03-14 11:45:00,53.0,37.7,30.04,North,0,1.0,-999.0,56,0.00,,,0.16,Wunderground v.1.15,2013-03-14 18:45:00,
2013-03-14 11:50:00,53.0,37.7,30.04,North,0,1.0,-999.0,56,0.00,,,0.16,Wunderground v.1.15,2013-03-14 18:50:00,
2013-03-14 11:55:00,53.0,37.7,30.04,North,0,1.0,-999.0,56,0.00,,,0.16,Wunderground v.1.15,2013-03-14 18:55:00,
2013-03-14 12:00:00,53.0,37.7,30.04,North,0,1.0,-999.0,56,0.00,,,0.16,Wunderground v.1.15,2013-03-14 19:00:00,
2013-03-14 12:05:00,53.0,37.7,30.04,North,0,1.0,-999.0,56,0.00,,,0.16,Wunderground v.1.15,2013-03-14 19:05:00,
2013-03-14 12:10:00,53.0,37.7,30.04,North,0,1.0,-999.0,56,0.00,,,0.16,Wunderground v.1.15,2013-03-14 19:10:00,
2013-03-14 12:15:00,53.0,41.9,30.06,SW,225,1.0,-999.0,66,0.00,,,0.16,Wunderground v.1.15,2013-03-14 19:15:00,
2013-03-14 12:20:00,53.0,41.9,30.06,SW,225,1.0,-999.0,66,0.00,,,0.16,Wunderground v.1.15,2013-03-14 19:20:00,
2013-03-14 12:25:00,53.0,41.9,30.06,SW,225,1.0,-999.0,66,0.00,,,0.16,Wunderground v.1.15,2013-03-14 19:25:00,
2013-03-14 12:30:00,53.0,41.9,30.06,SW,225,1.0,-999.0,66,0.00,,,0.16,Wunderground v.1.15,2013-03-14 19:30:00,
2013-03-14 12:35:00,53.0,41.9,30.06,SW,225,1.0,-999.0,66,0.00,,,0.16,Wunderground v.1.15,2013-03-14 19:35:00,
2013-03-14 12:40:00,53.0,41.9,30.06,SW,225,1.0,-999.0,66,0.00,,,0.16,Wunderground v.1.15,2013-03-14 19:40:00,
2013-03-14 12:45:00,52.5,19.4,30.05,East,90,1.0,-999.0,27,0.00,,,0.16,Wunderground v.1.15,2013-03-14 19:45:00,
2013-03-14 12:50:00,52.5,19.4,30.05,East,90,1.0,-999.0,27,0.00,,,0.16,Wunderground v.1.15,2013-03-14 19:50:00,
2013-03-14 12:55:00,52.5,19.4,30.05,East,90,1.0,-999.0,27,0.00,,,0.16,Wunderground v.1.15,2013-03-14 19:55:00,
2013-03-14 13:00:00,52.5,19.4,30.05,East,90,1.0,-999.0,27,0.00,,,0.16,Wunderground v.1.15,2013-03-14 20:00:00,
2013-03-14 13:05:00,52.5,19.4,30.05,East,90,1.0,-999.0,27,0.00,,,0.16,Wunderground v.1.15,2013-03-14 20:05:00,
2013-03-14 13:10:00,52.5,19.4,30.05,East,90,1.0,-999.0,27,0.00,,,0.16,Wunderground v.1.15,2013-03-14 20:10:00,
2013-03-14 13:15:00,52.4,33.8,30.04,NE,45,1.0,-999.0,49,0.01,,,0.16,Wunderground v.1.15,2013-03-14 20:15:00,
2013-03-14 13:20:00,52.4,33.8,30.04,NE,45,1.0,-999.0,49,0.01,,,0.16,Wunderground v.1.15,2013-03-14 20:20:00,
2013-03-14 13:25:00,52.4,33.8,30.04,NE,45,1.0,-999.0,49,0.01,,,0.16,Wunderground v.1.15,2013-03-14 20:25:00,
2013-03-14 13:30:00,52.4,33.8,30.04,NE,45,1.0,-999.0,49,0.01,,,0.16,Wunderground v.1.15,2013-03-14 20:30:00,
2013-03-14 13:35:00,52.4,33.8,30.04,NE,45,1.0,-999.0,49,0.01,,,0.16,Wunderground v.1.15,2013-03-14 20:35:00,
2013-03-14 13:40:00,52.4,33.8,30.04,NE,45,1.0,-999.0,49,0.01,,,0.16,Wunderground v.1.15,2013-03-14 20:40:00,
2013-03-14 13:45:00,51.6,-17.4,30.05,ENE,68,1.0,-999.0,5,0.03,,,0.16,Wunderground v.1.15,2013-03-14 20:45:00,
2013-03-14 13:50:00,51.6,-17.4,30.05,ENE,68,1.0,-999.0,5,0.03,,,0.16,Wunderground v.1.15,2013-03-14 20:50:00,
2013-03-14 13:55:00,51.6,-17.4,30.05,ENE,68,1.0,-999.0,5,0.03,,,0.16,Wunderground v.1.15,2013-03-14 20:55:00,
2013-03-14 14:00:00,51.6,-17.4,30.05,ENE,68,1.0,-999.0,5,0.03,,,0.16,Wunderground v.1.15,2013-03-14 21:00:00,
2013-03-14 14:05:00,51.6,-17.4,30.05,ENE,68,1.0,-999.0,5,0.03,,,0.16,Wunderground v.1.15,2013-03-14 21:05:00,
2013-03-14 14:10:00,51.6,-17.4,30.05,ENE,68,1.0,-999.0,5,0.03,,,0.16,Wunderground v.1.15,2013-03-14 21:10:00,
2013-03-14 14:15:00,51.1,31.6,30.04,NNE,23,1.0,-999.0,47,0.03,,,0.16,Wunderground v.1.15,2013-03-14 21:15:00,
2013-03-14 14:20:00,51.1,31.6,30.04,NNE,23,1.0,-999.0,47,0.03,,,0.16,Wunderground v.1.15,2013-03-14 21:20:00,
2013-03-14 14:25:00,51.1,31.6,30.04,NNE,23,1.0,-999.0,47,0.03,,,0.16,Wunderground v.1.15,2013-03-14 21:25:00,
2013-03-14 14:30:00,51.1,31.6,30.04,NNE,23,1.0,-999.0,47,0.03,,,0.16,Wunderground v.1.15,2013-03-14 21:30:00,
2013-03-14 14:35:00,51.1,31.6,30.04,NNE,23,1.0,-999.0,47,0.03,,,0.16,Wunderground v.1.15,2013-03-14 21:35:00,
2013-03-14 14:40:00,51.1,31.6,30.04,NNE,23,1.0,-999.0,47,0.03,,,0.16,Wunderground v.1.15,2013-03-14 21:40:00,
2013-03-14 14:45:00,50.0,36.2,30.03,North,0,1.0,-999.0,59,0.01,,,0.16,Wunderground v.1.15,2013-03-14 21:45:00,
2013-03-14 14:50:00,50.0,36.2,30.03,North,0,1.0,-999.0,59,0.01,,,0.16,Wunderground v.1.15,2013-03-14 21:50:00,
2013-03-14 14:55:00,50.0,36.2,30.03,North,0,1.0,-999.0,59,0.01,,,0.16,Wunderground v.1.15,2013-03-14 21:55:00,
2013-03-14 15:00:00,50.0,36.2,30.03,North,0,1.0,-999.0,59,0.01,,,0.16,Wunderground v.1.15,2013-03-14 22:00:00,
2013-03-14 15:05:00,50.0,36.2,30.03,North,0,1.0,-999.0,59,0.01,,,0.16,Wunderground v.1.15,2013-03-14 22:05:00,
2013-03-14 15:10:00,50.0,36.2,30.03,North,0,1.0,-999.0,59,0.01,,,0.16,Wunderground v.1.15,2013-03-14 22:10:00,
2013-03-14 15:15:00,48.7,31.8,30.05,NE,45,1.0,-999.0,52,0.02,,,0.16,Wunderground v.1.15,2013-03-14 22:15:00,
2013-03-14 15:20:00,48.7,31.8,30.05,NE,45,1.0,-999.0,52,0.02,,,0.16,Wunderground v.1.15,2013-03-14 22:20:00,
2013-03-14 15:25:00,48.7,31.8,30.05,NE,45,1.0,-999.0,52,0.02,,,0.16,Wunderground v.1.15,2013-03-14 22:25:00,
2013-03-14 15:30:00,48.7,31.8,30.05,NE,45,1.0,-999.0,52,0.02,,,0.16,Wunderground v.1.15,2013-03-14 22:30:00,
2013-03-14 15:35:00,48.7,31.8,30.05,NE,45,1.0,-999.0,52,0.02,,,0.16,Wunderground v.1.15,2013-03-14 22:35:00,
2013-03-14 15:40:00,48.7,31.8,30.05,NE,45,1.0,-999.0,52,0.02,,,0.16,Wunderground v.1.15,2013-03-14 22:40:00,
2013-03-14 15:45:00,48.3,-19.7,30.04,NNW,338,1.0,-999.0,5,0.03,,,0.16,Wunderground v.1.15,2013-03-14 22:45:00,
2013-03-14 15:50:00,48.3,-19.7,30.04,NNW,338,1.0,-999.0,5,0.03,,,0.16,Wunderground v.1.15,2013-03-14 22:50:00,
2013-03-14 15:55:00,48.3,-19.7,30.04,NNW,338,1.0,-999.0,5,0.03,,,0.16,Wunderground v.1.15,2013-03-14 22:55:00,
2013-03-14 16:00:00,48.3,-19.7,30.04,NNW,338,1.0,-999.0,5,0.03,,,0.16,Wunderground v.1.15,2013-03-14 23:00:00,
2013-03-14 16:05:00,48.3,-19.7,30.04,NNW,338,1.0,-999.0,5,0.03,,,0.16,Wunderground v.1.15,2013-03-14 23:05:00,
2013-03-14 16:10:00,48.3,-19.7,30.04,NNW,338,1.0,-999.0,5,0.03,,,0.16,Wunderground v.1.15,2013-03-14 23:10:00,
2013-03-14 16:15:00,48.1,15.6,30.05,NE,45,1.0,-999.0,27,0.01,,,0.16,Wunderground v.1.15,2013-03-14 23:15:00,
2013-03-14 16:20:00,48.1,15.6,30.05,NE,45,1.0,-999.0,27,0.01,,,0.16,Wunderground v.1.15,2013-03-14 23:20:00,
2013-03-14 16:25:00,48.1,15.6,30.05,NE,45,1.0,-999.0,27,0.01,,,0.16,Wunderground v.1.15,2013-03-14 23:25:00,
2013-03-14 16:30:00,48.1,15.6,30.05,NE,45,1.0,-999.0,27,0.01,,,0.16,Wunderground v.1.15,2013-03-14 23:30:00,
2013-03-14 16:35:00,48.1,15.6,30.05,NE,45,1.0,-999.0,27,0.01,,,0.16,Wunderground v.1.15,2013-03-14 23:35:00,
2013-03-14 16:40:00,48.1,15.6,30.05,NE,45,1.0,-999.0,27,0.01,,,0.16,Wunderground v.1.15,2013-03-14 23:40:00,
2013-03-14 16:45:00,48.9,33.0,30.04,NNW,338,2.0,-999.0,54,0.00,,,0.16,Wunderground v.1.15,2013-03-14 23:45:00,
2013-03-14 16:50:00,48.9,33.0,30.04,NNW,338,2.0,-999.0,54,0.00,,,0.16,Wunderground v.1.15,2013-03-14 23:50:00,
2013-03-14 16:55:00,48.9,33.0,30.04,NNW,338,2.0,-999.0,54,0.00,,,0.16,Wunderground v.1.15,2013-03-14 23:55:00,
2013-03-14 17:00:00,48.9,33.0,30.04,NNW,338,2.0,-999.0,54,0.00,,,0.16,Wunderground v.1.15,2013-03-15 00:00:00,
2013-03-14 17:05:00,48.9,33.0,30.04,NNW,338,2.0,-999.0,54,0.00,,,0.16,Wunderground v.1.15,2013-03-15 00:05:00,
2013-03-14 17:10:00,48.9,33.0,30.04,NNW,338,2.0,-999.0,54,0.00,,,0.16,Wunderground v.1.15,2013-03-15 00:10:00,
2013-03-14 17:15:00,49.0,36.5,30.05,ESE,113,1.0,-999.0,62,0.00,,,0.16,Wunderground v.1.15,2013-03-15 00:15:00,
2013-03-14 17:20:00,49.0,36.5,30.05,ESE,113,1.0,-999.0,62,0.00,,,0.16,Wunderground v.1.15,2013-03-15 00:20:00,
2013-03-14 17:25:00,49.0,36.5,30.05,ESE,113,1.0,-999.0,62,0.00,,,0.16,Wunderground v.1.15,2013-03-15 00:25:00,
2013-03-14 17:30:00,49.0,36.5,30.05,ESE,113,1.0,-999.0,62,0.00,,,0.16,Wunderground v.1.15,2013-03-15 00:30:00,
2013-03-14 17:35:00,49.0,36.5,30.05,ESE,113,1.0,-999.0,62,0.00,,,0.16,Wunderground v.1.15,2013-03-15 00:35:00,
2013-03-14 17:40:00,49.0,36.5,30.05,ESE,113,1.0,-999.0,62,0.00,,,0.16,Wunderground v.1.15,2013-03-15 00:40:00,
2013-03-14 17:45:00,49.0,39.6,30.06,ESE,113,1.0,-999.0,70,0.01,,,0.16,Wunderground v.1.15,2013-03-15 00:45:00,
2013-03-14 17:50:00,49.0,39.6,30.06,ESE,113,1.0,-999.0,70,0.01,,,0.16,Wunderground v.1.15,2013-03-15 00:50:00,
2013-03-14 17:55:00,49.0,39.6,30.06,ESE,113,1.0,-999.0,70,0.01,,,0.16,Wunderground v.1.15,2013-03-15 00:55:00,
2013-03-14 18:00:00,49.0,39.6,30.06,ESE,113,1.0,-999.0,70,0.01,,,0.16,Wunderground v.1.15,2013-03-15 01:00:00,
2013-03-14 18:05:00,49.0,39.6,30.06,ESE,113,1.0,-999.0,70,0.01,,,0.16,Wunderground v.1.15,2013-03-15 01:05:00,
2013-03-14 18:10:00,49.0,39.6,30.06,ESE,113,1.0,-999.0,70,0.01,,,0.16,Wunderground v.1.15,2013-03-15 01:10:00,
2013-03-14 18:15:00,47.9,28.6,30.07,NE,45,2.0,-999.0,47,0.03,,,0.16,Wunderground v.1.15,2013-03-15 01:15:00,
2013-03-14 18:20:00,47.9,28.6,30.07,NE,45,2.0,-999.0,47,0.03,,,0.16,Wunderground v.1.15,2013-03-15 01:20:00,
2013-03-14 18:25:00,47.9,28.6,30.07,NE,45,2.0,-999.0,47,0.03,,,0.16,Wunderground v.1.15,2013-03-15 01:25:00,
2013-03-14 18:30:00,47.9,28.6,30.07,NE,45,2.0,-999.0,47,0.03,,,0.16,Wunderground v.1.15,2013-03-15 01:30:00,
2013-03-14 18:35:00,47.9,28.6,30.07,NE,45,2.0,-999.0,47,0.03,,,0.16,Wunderground v.1.15,2013-03-15 01:35:00,
2013-03-14 18:40:00,47.9,28.6,30.07,NE,45,2.0,-999.0,47,0.03,,,0.16,Wunderground v.1.15,2013-03-15 01:40:00,
2013-03-14 18:45:00,47.2,4.5,30.08,North,0,1.0,-999.0,17,0.04,,,0.16,Wunderground v.1.15,2013-03-15 01:45:00,
2013-03-14 18:50:00,47.2,4.5,30.08,North,0,1.0,-999.0,17,0.04,,,0.16,Wunderground v.1.15,2013-03-15 01:50:00,
2013-03-14 18:55:00,47.2,4.5,30.08,North,0,1.0,-999.0,17,0.04,,,0.16,Wunderground v.1.15,2013-03-15 01:55:00,
2013-03-14 19:00:00,47.2,4.5,30.08,North,0,1.0,-999.0,17,0.04,,,0.16,Wunderground v.1.15,2013-03-15 02:00:00,
2013-03-14 19:05:00,47.2,4.5,30.08,North,0,1.0,-999.0,17,0.04,,,0.16,Wunderground v.1.15,2013-03-15 02:05:00,
2013-03-14 19:10:00,47.2,4.5,30.08,North,0,1.0,-999.0,17,0.04,,,0.16,Wunderground v.1.15,2013-03-15 02:10:00,
2013-03-14 19:15:00,46.9,-1.5,30.09,NNE,23,1.0,-999.0,13,0.02,,,0.16,Wunderground v.1.15,2013-03-15 02:15:00,
2013-03-14 19:20:00,46.9,-1.5,30.09,NNE,23,1.0,-999.0,13,0.02,,,0.16,Wunderground v.1.15,2013-03-15 02:20:00,
2013-03-14 19:25:00,46.9,-1.5,30.09,NNE,23,1.0,-999.0,13,0.02,,,0.16,Wunderground v.1.15,2013-03-15 02:25:00,
2013-03-14 19:30:00,46.9,-1.5,30.09,NNE,23,1.0,-999.0,13,0.02,,,0.16,Wunderground v.1.15,2013-03-15 02:30:00,
2013-03-14 19:35:00,46.9,-1.5,30.09,NNE,23,1.0,-999.0,13,0.02,,,0.16,Wunderground v.1.15,2013-03-15 02:35:00,
2013-03-14 19:40:00,46.9,-1.5,30.09,NNE,23,1.0,-999.0,13,0.02,,,0.16,Wunderground v.1.15,2013-03-15 02:40:00,
2013-03-14 19:45:00,47.0,20.0,30.09,NE,45,1.0,-999.0,34,0.00,,,0.16,Wunderground v.1.15,2013-03-15 02:45:00,
2013-03-14 19:50:00,47.0,20.0,30.09,NE,45,1.0,-999.0,34,0.00,,,0.16,Wunderground v.1.15,2013-03-15 02:50:00,
2013-03-14 19:55:00,47.0,20.0,30.09,NE,45,1.0,-999.0,34,0.00,,,0.16,Wunderground v.1.15,2013-03-15 02:55:00,
2013-03-14 20:00:00,47.0,20.0,30.09,NE,45,1.0,-999.0,34,0.00,,,0.16,Wunderground v.1.15,2013-03-15 03:00:00,
2013-03-14 20:05:00,47.0,20.0,30.09,NE,45,1.0,-999.0,34,0.00,,,0.16,Wunderground v.1.15,2013-03-15 03:05:00,
2013-03-14 20:10:00,47.0,20.0,30.09,NE,45,1.0,-999.0,34,0.00,,,0.16,Wunderground v.1.15,2013-03-15 03:10:00,
2013-03-14 20:15:00,46.8,27.1,30.09,North,0,1.0,-999.0,46,0.00,,,0.16,Wunderground v.1.15,2013-03-15 03:15:00,
2013-03-14 20:20:00,46.8,27.1,30.09,North,0,1.0,-999.0,46,0.00,,,0.16,Wunderground v.1.15,2013-03-15 03:20:00,
2013-03-14 20:25:00,46.8,27.1,30.09,North,0,1.0,-999.0,46,0.00,,,0.16,Wunderground v.1.15,2013-03-15 03:25:00,
2013-03-14 20:30:00,46.8,27.1,30.09,North,0,1.0,-999.0,46,0.00,,,0.16,Wunderground v.1.15,2013-03-15 03:30:00,
2013-03-14 20:35:00,46.8,27.1,30.09,North,0,1.0,-999.0,46,0.00,,,0.16,Wunderground v.1.15,2013-03-15 03:35:00,
2013-03-14 20:40:00,46.8,27.1,30.09,North,0,1.0,-999.0,46,0.00,,,0.16,Wunderground v.1.15,2013-03-15 03:40:00,
2013-03-14 20:45:00,47.1,35.9,30.10,NE,45,1.0,-999.0,65,0.00,,,0.16,Wunderground v.1.15,2013-03-15 03:45:00,
2013-03-14 20:50:00,47.1,35.9,30.10,NE,45,1.0,-999.0,65,0.00,,,0.16,Wunderground v.1.15,2013-03-15 03:50:00,
2013-03-14 20:55:00,47.1,35.9,30.10,NE,45,1.0,-999.0,65,0.00,,,0.16,Wunderground v.1.15,2013-03-15 03:55:00,
2013-03-14 21:00:00,47.1,35.9,30.10,NE,45,1.0,-999.0,65,0.00,,,0.16,Wunderground v.1.15,2013-03-15 04:00:00,
2013-03-14 21:05:00,47.1,35.9,30.10,NE,45,1.0,-999.0,65,0.00,,,0.16,Wunderground v.1.15,2013-03-15 04:05:00,
2013-03-14 21:10:00,47.1,35.9,30.10,NE,45,1.0,-999.0,65,0.00,,,0.16,Wunderground v.1.15,2013-03-15 04:10:00,
2013-03-14 21:15:00,46.9,28.2,30.10,SE,135,1.0,-999.0,48,0.00,,,0.16,Wunderground v.1.15,2013-03-15 04:15:00,
2013-03-14 21:20:00,46.9,28.2,30.10,SE,135,1.0,-999.0,48,0.00,,,0.16,Wunderground v.1.15,2013-03-15 04:20:00,
2013-03-14 21:25:00,46.9,28.2,30.10,SE,135,1.0,-999.0,48,0.00,,,0.16,Wunderground v.1.15,2013-03-15 04:25:00,
2013-03-14 21:30:00,46.9,28.2,30.10,SE,135,1.0,-999.0,48,0.00,,,0.16,Wunderground v.1.15,2013-03-15 04:30:00,
2013-03-14 21:35:00,46.9,28.2,30.10,SE,135,1.0,-999.0,48,0.00,,,0.16,Wunderground v.1.15,2013-03-15 04:35:00,
2013-03-14 21:40:00,46.9,28.2,30.10,SE,135,1.0,-999.0,48,0.00,,,0.16,Wunderground v.1.15,2013-03-15 04:40:00,
2013-03-14 21:45:00,46.7,28.0,30.12,ESE,113,1.0,-999.0,48,0.00,,,0.16,Wunderground v.1.15,2013-03-15 04:45:00,
2013-03-14 21:50:00,46.7,28.0,30.12,ESE,113,1.0,-999.0,48,0.00,,,0.16,Wunderground v.1.15,2013-03-15 04:50:00,
2013-03-14 21:55:00,46.7,28.0,30.12,ESE,113,1.0,-999.0,48,0.00,,,0.16,Wunderground v.1.15,2013-03-15 04:55:00,
2013-03-14 22:00:00,46.7,28.0,30.12,ESE,113,1.0,-999.0,48,0.00,,,0.16,Wunderground v.1.15,2013-03-15 05:00:00,
2013-03-14 22:10:00,46.7,28.0,30.12,ESE,113,1.0,-999.0,48,0.00,,,0.16,Wunderground v.1.15,2013-03-15 05:10:00,
2013-03-14 22:15:00,46.1,-14.8,30.12,North,0,0.0,-999.0,7,0.01,,,0.16,Wunderground v.1.15,2013-03-15 05:15:00,
2013-03-14 22:20:00,46.1,-14.8,30.12,North,0,0.0,-999.0,7,0.01,,,0.16,Wunderground v.1.15,2013-03-15 05:20:00,
2013-03-14 22:25:00,46.1,-14.8,30.12,North,0,0.0,-999.0,7,0.01,,,0.16,Wunderground v.1.15,2013-03-15 05:25:00,
2013-03-14 22:30:00,46.1,-14.8,30.12,North,0,0.0,-999.0,7,0.01,,,0.16,Wunderground v.1.15,2013-03-15 05:30:00,
2013-03-14 22:35:00,46.1,-14.8,30.12,North,0,0.0,-999.0,7,0.01,,,0.16,Wunderground v.1.15,2013-03-15 05:35:00,
2013-03-14 22:40:00,46.1,-14.8,30.12,North,0,0.0,-999.0,7,0.01,,,0.16,Wunderground v.1.15,2013-03-15 05:40:00,
2013-03-14 22:45:00,46.0,-9.8,30.13,NE,45,1.0,-999.0,9,0.01,,,0.16,Wunderground v.1.15,2013-03-15 05:45:00,
2013-03-14 22:50:00,46.0,-9.8,30.13,NE,45,1.0,-999.0,9,0.01,,,0.16,Wunderground v.1.15,2013-03-15 05:50:00,
2013-03-14 22:55:00,46.0,-9.8,30.13,NE,45,1.0,-999.0,9,0.01,,,0.16,Wunderground v.1.15,2013-03-15 05:55:00,
2013-03-14 23:05:00,46.0,-9.8,30.13,NE,45,1.0,-999.0,9,0.01,,,0.16,Wunderground v.1.15,2013-03-15 06:05:00,
2013-03-14 23:10:00,46.0,-9.8,30.13,NE,45,1.0,-999.0,9,0.01,,,0.16,Wunderground v.1.15,2013-03-15 06:10:00,
2013-03-14 23:20:00,46.3,11.4,30.13,NW,315,1.0,-999.0,24,0.00,,,0.16,Wunderground v.1.15,2013-03-15 06:20:00,
2013-03-14 23:25:00,46.3,11.4,30.13,NW,315,1.0,-999.0,24,0.00,,,0.16,Wunderground v.1.15,2013-03-15 06:25:00,
2013-03-14 23:30:00,46.3,11.4,30.13,NW,315,1.0,-999.0,24,0.00,,,0.16,Wunderground v.1.15,2013-03-15 06:30:00,
2013-03-14 23:35:00,46.3,11.4,30.13,NW,315,1.0,-999.0,24,0.00,,,0.16,Wunderground v.1.15,2013-03-15 06:35:00,
2013-03-14 23:40:00,46.3,11.4,30.13,NW,315,1.0,-999.0,24,0.00,,,0.16,Wunderground v.1.15,2013-03-15 06:40:00,
2013-03-14 23:45:00,46.3,-5.5,30.15,NNW,338,1.0,-999.0,11,0.00,,,0.16,Wunderground v.1.15,2013-03-15 06:45:00,
2013-03-14 23:50:00,46.3,-5.5,30.15,NNW,338,1.0,-999.0,11,0.00,,,0.16,Wunderground v.1.15,2013-03-15 06:50:00,
2013-03-14 23:55:00,46.3,-5.5,30.15,NNW,338,1.0,-999.0,11,0.00,,,0.16,Wunderground v.1.15,2013-03-15 06:55:00,